Regional Weather Roundup
Issued by NWS

Home | Current Version | Previous Version | Text Only | Print | Product List | Glossary Off
Versions: 1 2 3 4 5 6 7 8 9 10 11 12 13 14 15 16 17 18 19 20 21 22 23 24 25 26 27 28 29 30 31 32 33 34 35 36 37 38 39 40 41 42 43 44 45 46 47 48 49 50

000
ASUS43 KDMX 232108
RWRIA

WEATHER ROUNDUP FOR IOWA
NATIONAL WEATHER SERVICE DES MOINES IA
400 PM CDT MON MAY 23 2016

NOTE: "FAIR" INDICATES FEW OR NO CLOUDS BELOW 12,000 FEET WITH NO
SIGNIFICANT WEATHER AND/OR OBSTRUCTIONS TO VISIBILITY.

* - THESE STATIONS ARE NOT NWS STATIONS...THUS NOT UNDER NWS
QUALITY CONTROL.  THEY ALSO DO NOT REPORT WEATHER SUCH
AS PRECIPITATION OR FOG.

IAZ001>003-012>014-020>022-031>034-043>046-232200-
   NORTHWEST IOWA

CITY           SKY/WX    TMP DP  RH WIND       PRES   REMARKS
CARROLL *      SUNNY     66  63  88 SE16G22   29.82R
CHEROKEE *     CLOUDY    73  66  78 S10       29.77S
DENISON *      MOSUNNY   72  63  73 S13G24    29.80R
LE MARS *      MOSUNNY   77  68  73 W6        29.74S
ORANGE CITY *  MOSUNNY   73  66  78 W9        29.75R
SHELDON *      MOSUNNY   75  66  73 S13       29.73F
SIOUX CITY     TSTM      77  65  66 S18G24    29.74S
SPENCER        CLOUDY    73  63  70 S14       29.76F
STORM LAKE *   SUNNY     73  61  64 SW15      29.80R
$$

IAZ055>058-069>071-079>083-090>094-232200-
   SOUTHWEST IOWA

CITY           SKY/WX    TMP DP  RH WIND       PRES   REMARKS
ATLANTIC *     PTSUNNY   73  63  68 S14G22    29.84R
AUDUBON *      RAIN      70  64  83 S15G22    29.83S
CLARINDA *       N/A     70  63  78 MISG      29.87F
COUNCIL BLFS * MOSUNNY   72  63  73 SE24G32   29.82R
CRESTON *      MOSUNNY   66  63  88 S23       29.86F
HARLAN  *        N/A    N/A N/A N/A MISG        N/A
LAMONI         CLOUDY    65  62  90 SW16G24   29.91R
RED OAK *      PTSUNNY   72  61  68 S26G39    29.84R
SHENANDOAH *   CLOUDY    72  61  68 S23G31    29.85R
$$

IAZ047>049-059>061-072>074-084-232200-
   CENTRAL IOWA

CITY           SKY/WX    TMP DP  RH WIND       PRES   REMARKS
AMES           CLOUDY    77  60  55 SW18G28   29.85R
ANKENY *       SUNNY     75  61  60 SW14G21   29.86S
BOONE *        MOSUNNY   75  63  64 S10G17    29.84F
CHARITON *     MOSUNNY   75  55  50 S18       29.87S
DES MOINES     CLOUDY    75  59  57 SW10      29.86F
GRINNELL*      CLOUDY    81  55  41 S20G25    29.86F HX  80
KNOXVILLE *    SUNNY     79  55  44 S18       29.85F
MARSHALLTOWN   PTSUNNY   81  59  47 S23G31    29.83F HX  81
NEWTON *       CLOUDY    81  57  44 S18G28    29.85S HX  81
PELLA *        PTSUNNY   81  54  39 S15G25    29.87F HX  80
PERRY *        PTSUNNY   73  64  73 S20       29.85S
$$

IAZ004>006-015-016-023>025-035-036-232200-
   NORTH CENTRAL IOWA

CITY           SKY/WX    TMP DP  RH WIND       PRES   REMARKS
ALGONA *       CLOUDY    68  64  88 SE16      29.78F
ESTHERVILLE    CLOUDY    72  62  71 S21       29.77F
FORT DODGE *   CLOUDY    64  59  82 S10       29.83S
MASON CITY     TSTM      64  63  96 S14G29    29.85R FOG
FOREST CITY *  PTSUNNY   63  63 100 S21G26    29.84R
WEBSTER CITY * MOSUNNY   68  64  88 SW20G28   29.81S
IOWA FALLS *   CLOUDY    77  61  57 SW30G40   29.85R
$$

IAZ007>011-017>019-026>030-037>042-050>054-066-232200-
   NORTHEAST IOWA

CITY           SKY/WX    TMP DP  RH WIND       PRES   REMARKS
CEDAR RAPIDS   SUNNY     84  50  30 S22G31    29.87S HX  82
CHARLES CITY * PTSUNNY   82  55  39 S22G31    29.82F HX  82
CLINTON *      CLOUDY    84  47  27 S20       29.91S HX  82
DECORAH *      MOSUNNY   82  50  32 S12G23    29.83S HX  81
DUBUQUE        PTSUNNY   82  47  29 S20G29    29.89F HX  80
MONTICELLO *   SUNNY     86  45  23 S17G25    29.87F HX  83
OELWEIN *      SUNNY     84  52  32 S23G30    29.85S HX  82
WATERLOO       CLOUDY    82  55  39 S15G29    29.82S HX  81
$$

IAZ064-065-067-068-078-232200-
   EAST CENTRAL IOWA

CITY           SKY/WX    TMP DP  RH WIND       PRES   REMARKS
DAVENPORT      MOSUNNY   85  44  23 S21       29.90F HX  82
IOWA CITY      SUNNY     84  46  26 S13G25    29.89F HX  82
MT. PLEASANT * MOSUNNY   86  46  25 S17G23    29.90F HX  83
MUSCATINE *    SUNNY     84  46  26 S17G23    29.89S HX  82
QUAD CITIES    MOSUNNY   86  47  25 S15G23    29.89F HX  83
$$

IAZ062-063-075>077-085>089-095>099-232200-
   SOUTHEAST IOWA

CITY           SKY/WX    TMP DP  RH WIND       PRES   REMARKS
BURLINGTON     SUNNY     83  49  30 S14G20    29.90F HX  81
FAIRFIELD *      N/A    N/A N/A N/A MISG        N/A
FORT MADISON * SUNNY     82  48  30 S8G18     29.92S HX  81
KEOKUK *       SUNNY     82  52  34 SW15G22   29.90F HX  81
OSKALOOSA *      N/A     82  52  34 S15G25    29.88F HX  81
OTTUMWA        MOSUNNY   81  55  40 S16       29.88F HX  81
WASHINGTON *   SUNNY     84  48  28 S18G26    29.90F HX  82
$$

ABBREVIATIONS USED IN REMARKS
   TC - TEMPERATURES IN CELSIUS
  WCI - WIND CHILL INDEX
   HX - HEAT INDEX
  VSB - VISIBILITY
$$




USA.gov is the U.S. government's official web portal to all federal, state and local government web resources and services.